Regional Weather Roundup
Issued by NWS

Home | Current Version | Previous Version | Graphics & Text | Print | Product List | Glossary On
Versions: 1 2 3 4 5 6 7 8 9 10 11 12 13 14 15 16 17 18 19 20 21 22 23 24 25 26 27 28 29 30 31 32 33 34 35 36 37 38 39 40 41 42 43 44 45 46 47 48 49 50
173
ASUS43 KDMX 250306
RWRIA

WEATHER ROUNDUP FOR IOWA
NATIONAL WEATHER SERVICE DES MOINES IA
1000 PM CDT WED MAY 24 2017

NOTE: "FAIR" INDICATES FEW OR NO CLOUDS BELOW 12,000 FEET WITH NO
SIGNIFICANT WEATHER AND/OR OBSTRUCTIONS TO VISIBILITY.

* - THESE STATIONS ARE NOT NWS STATIONS...THUS NOT UNDER NWS
QUALITY CONTROL.  THEY ALSO DO NOT REPORT WEATHER SUCH
AS PRECIPITATION OR FOG.

IAZ001>003-012>014-020>022-031>034-043>046-250400-
   NORTHWEST IOWA

CITY           SKY/WX    TMP DP  RH WIND       PRES   REMARKS
CARROLL *      CLEAR     55  48  76 VRB5      29.68S
CHEROKEE *     CLEAR     51  47  87 E5        29.68S
DENISON *      CLEAR     52  46  82 E3        29.70R
LE MARS *      CLEAR     57  45  62 SE6       29.67S
ORANGE CITY *  CLEAR     55  46  71 E5        29.67S
SHELDON *      CLEAR     52  45  76 E7        29.66S
SIOUX CITY     CLEAR     55  45  68 SE6       29.66S
SPENCER        CLEAR     51  47  86 E6        29.69R
STORM LAKE *   CLEAR     54  45  71 E3        29.69R
$$

IAZ055>058-069>071-079>083-090>094-250400-
   SOUTHWEST IOWA

CITY           SKY/WX    TMP DP  RH WIND       PRES   REMARKS
ATLANTIC *     CLEAR     55  50  82 CALM      29.68R
AUDUBON *      CLEAR     52  46  82 CALM      29.70R
CLARINDA *     CLEAR     54  50  87 CALM      29.71R
COUNCIL BLFS * CLEAR     59  45  58 E3        29.68R
CRESTON *      CLEAR     52  50  93 E6        29.70S
HARLAN  *      CLEAR     55  48  76 CALM      29.71R
LAMONI         CLEAR     54  48  80 NE5       29.69R
RED OAK *      CLOUDY    57  50  77 CALM      29.69R
SHENANDOAH *   PTCLDY    55  48  76 SE5       29.69R
$$

IAZ047>049-059>061-072>074-084-250400-
   CENTRAL IOWA

CITY           SKY/WX    TMP DP  RH WIND       PRES   REMARKS
AMES           CLEAR     54  50  86 CALM      29.69R
ANKENY *       PTCLDY    52  48  87 CALM      29.70R
BOONE *        CLEAR     55  52  88 NE3       29.68S
CHARITON *     CLEAR     52  48  87 NW5       29.69R
DES MOINES     PTCLDY    57  49  74 CALM      29.69R
GRINNELL*      CLEAR     51  47  83 N6        29.70R
KNOXVILLE *    CLEAR     55  48  76 N5        29.67R
MARSHALLTOWN   CLEAR     52  49  89 E7        29.69R
NEWTON *       PTCLDY    55  48  76 NE6       29.68R
PELLA *        CLEAR     52  47  83 CALM      29.70R
PERRY *          N/A     58  50  75 CALM      29.69R
$$

IAZ004>006-015-016-023>025-035-036-250400-
   NORTH CENTRAL IOWA

CITY           SKY/WX    TMP DP  RH WIND       PRES   REMARKS
ALGONA *       PTCLDY    55  48  76 NE3       29.70S
CLARION *      CLEAR     55  52  88 E6        29.69S
ESTHERVILLE    PTCLDY    51  49  92 CALM      29.69R
FORT DODGE *   CLEAR     52  46  82 CALM      29.69S
MASON CITY     CLOUDY    52  48  86 NE5       29.71R
FOREST CITY *  CLOUDY    55  41  58 CALM      29.70S
WEBSTER CITY * CLEAR     54  48  82 E3        29.67S
IOWA FALLS *     N/A     54  49  85 CALM      29.70S
$$

IAZ007>011-017>019-026>030-037>042-050>054-066-250400-
   NORTHEAST IOWA

CITY           SKY/WX    TMP DP  RH WIND       PRES   REMARKS
CEDAR RAPIDS   CLEAR     53  51  93 N8        29.66S
CHARLES CITY * CLOUDY    55  52  88 E6        29.71R
CLINTON *      CLOUDY    56  52  86 N10       29.65R
DECORAH *      CLEAR     52  48  87 N3        29.69R
DUBUQUE        CLOUDY    54  51  90 N5        29.67R
MONTICELLO *   MOCLDY    55  50  82 VRB3      29.67R
OELWEIN *      CLOUDY    54  50  87 NE5       29.70R
WATERLOO       PTCLDY    53  48  83 NE3       29.69R
$$

IAZ064-065-067-068-078-250400-
   EAST CENTRAL IOWA

CITY           SKY/WX    TMP DP  RH WIND       PRES   REMARKS
DAVENPORT      CLOUDY    57  51  80 N12       29.65R
IOWA CITY      CLOUDY    59  50  72 N10       29.68R
MT. PLEASANT * CLOUDY    57  50  76 N10       29.66R
MUSCATINE *    MOCLDY    57  50  77 N8        29.66R
QUAD CITIES    CLOUDY    59  51  75 N9        29.63R
$$

IAZ062-063-075>077-085>089-095>099-250400-
   SOUTHEAST IOWA

CITY           SKY/WX    TMP DP  RH WIND       PRES   REMARKS
BURLINGTON     CLEAR     57  52  83 N9        29.64R
FAIRFIELD *    PTCLDY    54  48  82 N7        29.66S
FORT MADISON * MOCLDY    55  52  88 N6        29.66R
KEOKUK *       MOCLDY    57  52  82 CALM      29.65R
OSKALOOSA *      N/A     53  48  83 N6        29.68R
CENTERVILLE *    N/A     52  50  93 CALM      29.70R
OTTUMWA        CLEAR     54  49  83 N6        29.67R
WASHINGTON *   CLOUDY    57  52  82 N9        29.68R
$$

ABBREVIATIONS USED IN REMARKS
   TC - TEMPERATURES IN CELSIUS
  WCI - WIND CHILL INDEX
   HX - HEAT INDEX
  VSB - VISIBILITY
$$





USA.gov is the U.S. government's official web portal to all federal, state and local government web resources and services.